Theta_e
315 315 314 313 311 311 310 311 313 313 314 315 315 315 315 316 317 312 309 307 304 297 299 308 311 305 304 299 296 296 298 297 293 292 292 291 290 293 290 292 293 292 290 288 288 286 286 306 307 302 305 313 315 316
313 314 314 313 312 311 310 311 313 313 314 315 315 315 315 316 316 315 307 305 306 299 299 307 310 313 314 311 303 299 298 297 297 294 294 294 292 292 289 289 296 293 295 292 293 292 300 303 305 310 312 314 314 316
311 312 314 313 312 312 311 312 312 312 314 315 315 315 316 316 316 314 308 303 300 298 302 303 305 312 314 315 312 299 301 303 299 300 297 296 293 293 290 291 294 297 300 297 296 300 303 307 309 313 317 316 318 318
308 309 312 313 312 311 312 312 311 312 314 314 315 315 316 316 315 315 309 307 300 298 296 301 311 307 312 308 310 307 303 303 301 298 295 293 293 295 292 294 295 299 300 297 296 301 306 308 310 310 313 317 320 318
307 308 309 312 312 311 311 312 311 312 314 314 315 315 315 315 314 313 312 310 306 298 295 298 305 306 311 312 311 305 305 301 298 296 294 293 294 295 292 293 293 298 298 297 295 303 302 304 309 314 315 316 319 319
307 308 309 311 311 311 311 312 311 312 314 314 315 314 313 313 314 306 298 304 309 304 297 295 303 306 311 309 306 305 303 300 299 298 295 295 299 296 292 290 296 298 299 302 302 305 304 307 309 314 313 314 317 318
308 308 309 311 311 311 311 311 311 312 314 315 314 313 313 312 308 300 298 302 308 305 299 297 299 307 309 304 304 303 302 300 300 297 297 298 297 295 292 291 300 301 302 303 306 307 305 306 305 310 313 314 316 320
308 309 309 311 311 310 311 310 311 311 314 314 313 313 312 312 308 303 306 308 305 299 304 298 297 300 307 299 301 303 301 299 299 298 299 298 298 295 292 296 298 303 306 306 306 306 306 306 308 309 311 313 315 316
309 309 310 311 310 311 310 310 310 310 310 312 313 313 308 303 297 299 313 312 305 303 297 295 292 294 308 300 301 302 301 298 299 297 298 300 294 294 298 298 299 305 306 305 306 306 306 306 307 308 310 312 311 310
309 310 310 309 309 311 310 309 309 309 309 310 310 301 295 299 310 312 306 301 299 301 301 298 302 298 305 302 300 300 299 296 294 297 299 297 295 300 301 302 303 306 306 306 304 303 303 304 306 306 309 311 311 309
310 309 309 309 310 310 309 309 309 308 309 307 301 298 305 312 305 303 299 298 299 295 296 300 302 297 304 302 300 303 296 296 293 296 296 293 292 297 304 305 305 306 306 307 309 308 308 308 305 306 307 309 309 309
308 308 308 309 310 310 309 309 308 306 307 305 305 307 308 305 300 297 295 296 296 293 295 296 300 300 303 307 304 304 298 299 292 300 297 291 298 301 302 307 307 307 307 308 309 308 308 308 308 308 308 307 308 308
307 308 308 309 310 310 310 309 307 307 307 308 305 305 302 299 291 291 290 292 292 298 298 299 298 301 302 305 302 302 297 295 301 295 294 296 299 302 304 306 308 309 308 309 309 309 309 308 308 308 307 308 307 307
306 307 308 308 309 310 310 308 307 307 306 302 301 291 293 291 293 294 293 294 298 299 301 298 299 298 299 298 301 298 300 301 294 290 293 300 303 303 305 307 309 309 309 310 310 309 308 307 307 308 309 308 308 307
307 307 308 308 309 310 310 308 308 308 305 301 300 291 295 297 298 299 301 300 302 303 301 301 301 300 297 296 298 298 295 293 294 294 298 300 301 302 304 307 309 309 308 308 307 307 307 307 307 306 306 307 308 306
307 307 306 309 310 310 308 307 307 307 304 302 301 298 297 296 296 298 299 300 306 303 304 302 299 295 295 295 296 295 294 293 296 300 301 302 301 303 305 307 310 310 308 307 307 307 307 307 306 305 304 304 305 305
307 305 309 309 310 309 308 305 305 302 301 300 298 299 298 296 295 297 299 301 306 302 299 300 295 295 297 295 295 298 295 297 300 303 306 306 307 305 306 307 307 308 306 305 305 306 306 305 304 304 301 302 303 304
305 308 310 309 308 307 304 304 303 301 298 300 294 297 296 298 298 298 302 305 303 302 301 301 304 298 296 295 296 299 301 303 304 305 307 307 307 306 308 307 307 307 305 306 306 304 304 304 304 304 304 302 301 301
307 308 309 309 307 303 300 301 303 298 300 298 298 298 297 298 300 301 303 306 307 308 306 300 299 298 298 300 300 303 303 303 304 306 307 308 307 307 308 309 308 305 305 304 303 304 305 306 306 303 303 303 302 301
308 308 309 309 308 303 300 299 303 298 296 299 301 301 298 299 301 304 305 308 307 305 301 300 299 300 301 302 304 304 304 305 306 306 307 308 308 307 307 308 306 305 305 304 303 301 301 300 300 303 304 304 302 300
307 307 308 307 304 303 302 301 298 299 298 296 302 301 300 303 305 305 305 307 303 302 298 299 300 303 303 304 304 304 304 305 306 308 307 307 310 309 308 307 306 306 305 304 303 303 303 305 303 303 303 302 303 303
306 309 305 306 302 302 300 302 301 302 297 299 298 301 299 299 301 302 305 301 301 301 301 304 305 307 304 306 305 305 306 306 307 307 303 307 309 308 308 307 306 305 305 306 306 305 306 306 304 303 304 303 300 301
308 306 305 303 299 297 295 300 297 298 294 296 301 297 297 298 299 304 299 300 302 304 303 304 304 305 305 306 307 310 308 308 308 309 308 309 311 312 309 308 308 308 306 306 310 308 307 302 301 304 304 303 302 301
308 303 300 299 298 293 298 295 297 297 298 296 295 295 297 298 300 298 297 298 301 304 305 306 306 305 304 304 305 306 307 310 309 309 310 309 309 310 311 311 311 311 311 310 309 309 306 305 301 303 303 302 302 301
296 295 297 290 300 296 294 296 297 295 295 298 297 296 297 300 298 297 296 299 302 305 306 307 306 305 304 304 304 305 307 308 307 307 308 311 311 310 310 312 312 312 310 307 306 307 306 305 304 303 303 303 302 301
289 294 292 297 296 295 298 297 299 298 296 297 297 299 300 299 297 296 302 305 305 305 306 308 308 307 306 307 307 307 307 308 308 307 308 312 312 312 310 309 309 309 311 312 309 308 307 306 304 303 302 301 297 302
289 291 295 298 299 301 297 299 301 299 296 297 299 300 301 298 298 301 305 305 305 308 312 313 310 309 308 308 309 310 310 310 310 310 314 312 314 315 314 311 309 312 312 312 311 310 308 307 305 304 304 303 303 303
294 295 293 298 297 299 297 297 296 296 297 298 298 298 299 298 296 303 304 307 308 311 313 314 311 308 307 307 308 309 311 310 312 311 311 311 311 313 315 317 317 302 312 313 312 312 311 309 307 305 305 303 303 303
294 299 300 297 299 301 301 297 298 300 300 299 297 298 299 304 309 310 312 312 311 310 307 306 306 304 305 306 307 308 309 310 310 308 308 307 310 311 309 312 312 312 310 304 297 306 311 310 308 306 307 304 303 303
296 300 298 298 298 296 301 305 304 306 306 307 306 305 306 307 310 310 307 305 304 304 303 302 302 303 302 305 306 307 308 309 309 311 308 306 306 305 306 306 306 306 307 306 305 304 300 305 302 304 303 302 301 300
299 297 296 298 300 303 305 309 310 310 309 307 308 305 305 308 309 307 305 305 305 304 303 302 303 302 302 303 304 304 303 306 309 310 309 308 310 310 309 308 309 309 309 308 309 309 307 307 308 306 305 303 301 299
293 294 294 295 300 307 309 307 306 305 307 307 306 308 308 306 302 302 304 304 303 302 301 302 303 303 304 304 305 305 299 304 305 305 306 306 309 314 312 308 308 308 309 308 307 307 307 306 305 305 305 306 305 301
294 294 296 298 301 302 306 304 303 304 305 305 305 306 305 304 299 303 305 305 304 303 303 303 304 304 307 308 309 308 304 306 302 297 295 294 296 301 305 305 307 308 308 307 306 306 305 305 303 303 302 302 302 301
Wind_Speed
10 10 9 8 11 10 12 12 12 12 13 12 11 8 9 10 5 4 2 5 3 2 7 4 3 3 4 2 3 3 4 3 4 5 4 3 3 5 1 4 3 4 5 2 2 1 3 1 1 5 5 2 4 2
11 10 10 10 9 11 12 13 12 12 13 13 11 8 9 9 6 6 2 1 3 2 7 3 9 13 8 7 2 2 3 5 6 6 1 4 2 2 2 3 0 1 6 5 8 7 5 4 5 3 4 4 3 5
11 12 10 10 10 10 11 12 12 12 13 12 10 9 8 9 9 9 2 2 2 2 6 3 7 7 7 12 8 4 2 4 2 3 5 3 2 5 5 6 3 2 3 3 2 3 3 4 4 3 4 3 4 4
13 13 12 10 9 10 11 11 11 13 12 11 10 8 8 6 8 8 3 2 1 1 2 8 3 6 2 5 11 7 0 3 6 3 4 4 3 3 4 2 3 4 5 5 1 3 4 3 3 3 4 7 6 7
14 14 13 11 9 10 11 11 11 13 12 10 8 7 4 4 5 4 3 4 3 2 3 6 10 5 7 10 9 7 7 5 3 3 3 3 3 4 1 2 3 5 7 5 7 9 6 5 3 0 5 6 8 8
14 12 13 11 10 11 11 11 11 13 11 8 7 5 4 3 3 1 3 3 5 4 1 4 5 4 5 4 5 5 3 2 4 5 3 1 1 4 3 3 5 4 4 4 4 7 5 6 6 1 4 7 6 8
12 12 13 12 9 10 10 10 10 11 10 7 5 4 4 4 2 4 2 0 5 3 1 5 5 3 3 3 3 4 4 1 3 3 2 4 1 4 3 4 5 6 7 5 3 8 6 5 7 6 3 6 4 5
12 11 11 10 8 10 8 9 9 9 7 5 4 5 4 2 3 5 5 14 4 2 1 3 6 6 5 2 2 5 2 3 5 3 2 3 2 2 2 7 4 3 4 3 9 4 7 9 8 7 3 6 8 7
11 10 10 7 8 8 8 7 7 7 6 4 3 3 1 1 2 4 5 12 3 1 2 2 2 3 4 1 2 4 2 3 2 1 2 5 0 5 8 8 6 7 9 8 5 4 9 11 10 8 7 5 9 6
10 9 7 7 8 8 8 6 6 6 6 4 1 1 3 4 5 6 3 3 3 3 1 3 1 4 2 2 2 4 2 4 4 4 2 3 5 5 6 8 7 8 8 10 8 5 5 7 12 9 11 8 9 8
8 6 6 7 8 8 6 5 5 6 2 1 2 3 3 6 2 1 2 3 2 3 3 4 6 3 1 2 2 2 1 0 3 3 5 2 5 7 8 9 8 7 10 11 10 12 14 16 13 9 7 6 9 11
4 5 6 6 7 7 6 5 3 1 1 2 2 2 2 1 1 3 3 1 3 6 3 4 4 4 1 1 6 5 3 2 2 1 2 3 6 8 7 9 9 9 9 8 7 10 9 10 14 11 12 10 9 8
5 6 5 6 6 6 6 5 5 4 3 1 2 3 2 1 1 5 5 3 2 3 3 2 1 3 1 3 3 4 6 4 0 1 5 6 4 5 8 6 5 6 7 5 5 5 7 8 8 11 10 7 10 11
4 5 5 6 6 6 6 5 3 1 1 2 2 1 4 4 4 4 4 3 4 2 1 1 3 2 1 3 4 7 4 4 3 3 6 4 7 8 6 4 7 9 10 9 9 8 9 11 10 9 10 14 14 12
5 5 5 7 8 7 6 4 3 1 2 2 1 4 5 3 2 3 3 2 3 1 2 2 3 3 0 3 2 4 5 5 6 5 5 6 7 6 5 6 8 8 8 7 6 9 10 11 12 10 8 9 11 11
4 3 4 6 7 8 7 4 1 1 1 2 3 2 2 1 4 2 2 3 2 2 1 1 3 1 3 2 3 6 5 6 5 5 3 2 4 5 7 7 8 8 9 9 9 10 11 12 13 12 10 10 11 13
2 2 4 6 7 9 8 2 1 2 2 3 4 2 3 3 5 4 3 3 2 3 2 3 2 1 0 1 3 4 5 4 4 4 2 3 5 4 4 6 7 8 9 9 7 8 8 9 13 13 12 6 10 9
2 2 4 10 7 6 1 2 2 3 5 4 3 3 3 4 2 3 4 2 3 3 2 4 3 1 4 4 4 5 4 3 3 4 4 4 5 3 5 8 7 8 9 9 10 10 10 13 13 10 11 10 8 7
2 2 8 8 2 3 3 3 3 3 5 2 3 3 3 4 4 3 3 3 3 2 3 2 4 4 5 4 5 4 3 3 2 2 3 3 2 4 6 7 5 7 10 10 11 9 10 14 12 9 9 9 9 7
2 1 7 6 0 1 2 3 2 3 3 3 3 3 3 4 2 3 4 3 4 3 3 4 5 4 5 5 5 3 3 3 1 3 3 2 1 4 5 7 5 5 6 6 6 7 7 5 4 7 9 10 9 9
3 3 4 4 2 2 2 2 3 4 3 3 2 3 4 1 1 2 2 3 2 4 4 5 5 4 6 4 3 3 4 4 4 4 3 3 2 4 5 4 6 5 5 7 7 7 8 9 9 8 9 9 7 7
2 7 2 2 2 2 3 3 3 2 1 3 3 2 3 2 3 4 4 2 4 5 5 4 4 4 2 5 6 6 4 5 4 2 1 5 4 3 4 6 7 6 6 7 8 9 10 7 8 8 9 8 6 6
6 2 2 3 4 4 5 1 2 3 3 3 1 2 2 2 1 3 2 4 4 2 2 3 4 5 5 5 3 4 5 6 3 3 3 3 2 2 4 4 5 8 6 5 6 7 7 9 8 9 8 7 7 6
1 2 4 4 4 3 1 3 3 3 2 2 2 3 2 2 2 1 2 1 3 3 4 5 3 3 2 2 3 4 4 4 4 3 4 4 3 3 3 5 7 6 7 7 7 7 7 9 9 8 9 8 8 8
2 2 2 3 3 2 3 3 3 1 3 3 2 3 2 1 2 1 1 3 2 2 3 4 4 2 3 3 4 3 4 4 4 5 4 4 3 2 2 2 3 3 5 8 7 8 7 8 9 10 9 10 10 11
1 3 5 3 2 3 3 2 2 3 2 2 3 2 1 1 1 0 1 2 2 2 3 4 4 5 4 4 3 3 3 4 4 4 4 6 6 6 6 5 4 4 4 4 7 11 11 10 11 14 11 11 13 12
2 4 4 3 2 2 2 2 2 0 2 2 2 3 1 1 3 2 2 2 2 3 3 5 4 5 6 5 4 4 3 5 5 3 2 5 6 6 5 7 7 5 7 8 8 8 10 11 12 14 13 9 11 12
4 2 3 0 2 2 2 2 1 1 2 2 1 3 1 2 2 3 3 3 4 4 4 4 3 3 4 4 3 4 3 2 2 3 3 4 4 3 2 1 0 10 6 7 10 9 9 9 10 11 13 13 11 10
3 3 3 4 2 2 2 1 1 1 1 1 1 1 1 2 2 3 4 5 4 1 4 5 4 4 3 4 5 3 1 3 4 1 1 1 2 2 3 1 1 2 3 4 3 8 9 8 8 6 6 4 4 7
3 3 2 1 4 3 2 1 1 1 0 1 0 1 1 1 2 2 2 3 4 3 2 3 4 4 4 3 3 5 4 2 1 3 3 2 3 2 2 3 4 4 6 8 10 11 13 10 9 6 5 4 3 5
2 1 2 2 4 3 3 2 2 0 1 1 2 3 2 3 3 2 3 3 3 3 4 5 5 5 5 5 4 5 6 6 6 7 8 4 2 1 3 4 3 3 4 6 7 8 9 8 8 10 10 7 6 5
2 3 1 1 3 1 1 1 2 2 2 2 2 2 3 3 3 4 3 3 4 4 5 4 4 4 4 3 3 3 4 3 5 4 5 3 2 3 2 3 3 4 5 6 6 8 12 12 9 8 7 7 9 7
1 2 1 4 2 3 1 2 1 2 2 2 3 4 3 2 0 3 2 1 3 2 0 1 2 2 3 3 3 2 4 3 5 7 8 7 2 4 4 3 3 4 5 5 5 5 6 7 6 6 5 5 5 5
Wind_Direction
292 282 277 290 301 301 301 303 303 304 304 304 300 287 287 291 245 175 262 184 184 239 276 236 294 346 340 103 132 295 56 360 58 73 118 193 158 219 160 235 198 180 127 162 102 133 283 143 117 172 219 354 145 175
300 289 281 285 289 293 295 298 302 303 303 303 300 282 277 275 224 179 265 281 144 204 258 282 263 257 244 214 95 242 217 184 167 94 117 117 154 134 155 258 28 247 175 179 168 217 249 264 224 266 198 144 175 126
309 302 279 273 282 284 287 297 306 306 301 301 294 288 276 273 199 189 223 197 117 271 292 335 241 235 220 230 182 172 253 171 155 157 150 149 158 134 164 237 213 209 163 124 84 295 285 322 293 211 145 127 142 111
296 300 296 270 274 280 286 292 301 303 299 298 293 285 282 250 190 204 210 155 129 274 269 280 300 281 210 153 187 193 113 23 103 85 110 135 158 173 199 207 166 202 140 142 349 298 327 309 297 329 85 98 92 112
288 292 294 285 274 278 284 288 294 301 299 295 289 284 266 249 241 231 226 211 183 106 267 284 308 264 225 175 185 174 167 204 119 83 91 185 134 123 2 72 267 189 174 154 209 202 164 204 189 65 136 128 142 138
282 279 284 281 267 274 281 287 293 301 297 288 279 263 274 264 205 159 293 211 175 175 269 306 289 318 336 258 151 136 151 120 91 132 182 176 261 108 131 191 259 223 212 178 219 161 181 154 135 85 130 132 166 163
270 271 275 277 258 269 277 281 292 300 295 290 258 273 271 235 173 199 221 61 177 123 222 300 302 253 248 153 67 71 1 81 108 123 138 136 160 92 120 180 236 215 225 211 171 117 67 148 175 179 162 112 92 83
270 268 273 262 251 265 272 276 293 308 309 303 281 288 284 266 263 291 245 196 162 181 180 263 272 343 356 354 122 109 323 9 11 133 80 125 71 77 236 243 238 194 117 145 186 266 164 120 116 126 149 114 92 92
270 263 273 236 247 260 261 266 294 300 313 314 283 300 54 149 223 243 265 141 150 210 240 190 221 255 356 26 87 44 121 14 331 145 195 107 151 215 221 195 206 186 172 180 142 109 129 130 145 141 130 118 116 120
262 267 233 247 255 259 252 256 276 295 304 307 236 130 267 215 256 148 275 105 170 253 231 234 160 272 29 360 70 128 165 156 170 236 109 117 237 251 248 224 219 185 169 138 116 114 99 122 155 161 175 166 150 142
245 226 237 244 260 238 244 272 269 304 274 187 181 229 256 318 122 205 183 160 185 237 202 236 184 218 305 74 109 37 118 272 127 245 133 233 270 229 215 213 217 194 171 192 175 168 173 165 165 155 147 157 147 148
237 243 245 247 260 229 238 256 250 239 297 314 293 302 277 176 104 185 201 309 194 223 225 184 211 187 180 89 67 353 49 15 185 72 111 248 244 236 207 204 201 183 186 188 180 166 161 160 164 163 156 153 149 125
250 252 238 245 253 239 238 247 219 251 323 262 226 226 194 151 85 195 197 242 243 226 210 171 118 139 72 69 82 76 32 309 114 126 227 228 257 265 214 211 204 173 174 171 142 133 143 140 134 148 141 131 129 134
258 259 250 248 266 231 224 215 205 230 201 235 206 265 192 203 239 199 193 202 246 224 277 140 94 141 178 104 142 127 186 141 247 231 235 247 227 232 215 208 135 176 179 174 170 153 149 151 148 140 154 147 145 146
243 249 254 258 244 222 199 180 165 203 254 257 174 206 220 238 267 248 227 278 253 202 140 114 66 104 106 120 196 111 164 222 207 219 221 239 240 230 209 192 189 167 164 156 139 147 149 146 144 134 137 142 134 130
228 245 232 228 208 185 165 141 143 236 246 254 238 271 247 338 279 290 252 253 198 151 104 55 88 60 219 161 159 215 169 199 221 220 241 277 261 234 206 189 187 165 158 148 148 153 147 149 153 147 129 133 139 142
204 252 316 197 166 151 151 117 204 214 251 233 241 213 226 246 232 239 224 238 174 100 115 88 138 214 299 258 245 198 208 211 225 275 281 263 271 265 198 149 143 142 135 137 128 139 137 119 125 131 136 146 143 148
246 333 153 136 124 124 137 227 236 231 243 225 216 226 207 215 217 246 239 192 89 104 100 169 135 261 232 207 241 231 236 255 244 262 274 281 267 209 181 156 139 134 136 140 142 134 135 141 150 160 145 143 126 127
21 237 162 151 143 145 169 201 212 264 229 220 239 220 215 240 220 196 197 156 145 132 123 169 200 196 224 214 225 239 238 220 253 268 279 312 305 161 138 111 122 132 139 141 145 156 161 165 162 150 146 152 158 158
282 202 183 162 239 225 221 249 174 245 254 234 253 224 214 214 219 171 157 143 142 160 177 204 223 215 197 223 211 209 182 204 189 335 310 304 157 147 140 138 144 125 113 108 104 115 118 98 107 145 155 163 154 172
178 138 125 143 206 225 274 259 248 220 259 248 248 201 237 200 166 142 161 143 160 209 232 216 234 229 210 229 213 224 222 177 205 200 206 260 177 160 124 115 129 135 134 150 152 153 164 176 164 161 160 168 170 172
164 165 125 196 222 227 248 224 247 294 259 253 307 247 268 217 190 191 136 164 221 226 207 199 229 269 261 240 232 208 210 185 190 168 95 131 150 161 163 155 143 154 160 172 169 172 181 168 159 160 168 173 158 162
146 174 183 176 219 197 267 69 235 226 232 255 278 262 244 237 229 131 175 214 248 270 268 250 244 228 238 275 265 247 174 154 183 200 192 190 168 159 126 155 158 157 164 192 181 174 175 153 161 167 172 160 168 176
197 220 198 194 202 235 267 246 222 263 273 267 238 266 234 214 150 123 250 244 271 311 351 338 316 294 301 285 249 249 204 160 159 179 189 164 188 212 197 190 185 194 189 160 172 167 154 166 161 166 168 169 179 183
236 245 191 265 188 217 234 240 212 196 245 223 235 271 280 134 178 190 255 283 303 332 339 335 338 340 259 280 292 273 169 175 175 191 214 186 154 119 177 209 254 231 152 148 167 174 173 165 169 172 177 181 185 191
220 221 172 230 203 199 225 289 216 227 246 259 234 296 352 126 141 8 348 316 286 270 295 311 316 315 284 221 245 237 247 189 142 189 216 193 192 189 191 183 187 232 196 187 173 185 180 174 177 177 185 190 186 184
302 271 230 228 253 277 289 261 261 253 291 318 332 333 330 8 50 327 319 264 254 266 285 296 272 273 275 294 291 273 239 175 178 211 134 182 208 207 183 181 195 209 173 171 170 185 189 193 189 185 193 191 189 190
248 273 237 213 241 209 255 286 322 348 330 317 316 28 60 36 293 285 251 264 253 291 293 297 294 271 265 275 270 277 313 100 106 83 86 64 61 73 54 118 233 136 134 179 176 179 185 192 209 199 186 189 189 189
260 247 233 265 228 205 174 214 259 246 209 114 147 177 172 212 268 309 297 308 317 341 355 337 334 339 10 16 30 6 76 119 110 141 99 65 349 329 11 73 153 146 128 112 121 187 182 168 154 137 153 184 202 169
256 195 250 342 50 326 291 213 324 344 277 264 235 336 358 296 254 302 322 2 19 11 334 319 324 16 22 40 22 45 32 23 193 164 167 182 208 151 153 136 127 125 130 122 118 112 95 94 88 98 104 99 160 168
285 175 202 156 208 243 203 158 237 242 307 83 42 60 357 316 314 356 23 9 13 16 26 13 16 15 32 33 31 50 49 19 35 67 81 73 70 173 159 137 111 100 118 139 140 133 139 147 157 149 143 164 202 185
204 213 164 48 65 5 305 28 29 345 15 90 58 15 332 359 333 309 351 46 38 31 3 16 32 14 357 16 39 56 64 39 31 25 10 17 273 223 114 111 146 143 152 156 153 158 167 161 161 155 147 180 236 199
172 179 186 66 325 285 214 153 231 132 141 195 190 183 206 198 183 272 315 68 118 154 302 301 289 294 341 17 29 39 43 35 9 0 348 354 45 121 121 135 139 136 142 132 128 131 146 149 154 167 184 212 239 237